| time (UTC) | temp F | wind direction | speed MPH | gust MPH | rain 1hr in | rain 24hr in | rain mn in | humidity % | barometer mb |
| 20260906095332 | 61 | 341 | 0.0 | 0.0 | 0.00 | 0.00 | 0.00 | 99 | 987.4 |
| 20260906094831 | 60 | 340 | 0.0 | 0.0 | 0.00 | 0.00 | 0.00 | 99 | 987.5 |
| 20260906094330 | 60 | 340 | 0.0 | 0.0 | 0.00 | 0.00 | 0.00 | 99 | 987.4 |
| 20260906093829 | 60 | 340 | 0.0 | 0.0 | 0.00 | 0.00 | 0.00 | 99 | 987.4 |
| 20260906093329 | 60 | 340 | 0.0 | 0.0 | 0.00 | 0.00 | 0.00 | 99 | 987.3 |
| 20260906092828 | 60 | 340 | 0.0 | 0.0 | 0.00 | 0.00 | 0.00 | 99 | 987.3 |
| 20260906092327 | 60 | 340 | 0.0 | 0.0 | 0.00 | 0.00 | 0.00 | 99 | 987.3 |
| 20260906091827 | 60 | 340 | 0.0 | 0.0 | 0.00 | 0.00 | 0.00 | 99 | 987.3 |
| 20260906091325 | 60 | 340 | 0.0 | 0.0 | 0.00 | 0.00 | 0.00 | 99 | 987.4 |
| 20260906090824 | 60 | 340 | 0.0 | 0.0 | 0.00 | 0.00 | 0.00 | 99 | 987.4 |
| 20260906090322 | 61 | 340 | 0.0 | 0.0 | 0.00 | 0.00 | 0.00 | 99 | 987.6 |
| 20260906085821 | 61 | 340 | 0.0 | 0.0 | 0.00 | 0.00 | 0.00 | 99 | 987.6 |
| 20260906085321 | 60 | 340 | 0.0 | 0.0 | 0.00 | 0.00 | 0.00 | 99 | 987.6 |
| 20260906084820 | 60 | 340 | 0.0 | 0.0 | 0.00 | 0.00 | 0.00 | 99 | 987.4 |
| 20260906084319 | 60 | 340 | 0.0 | 0.0 | 0.00 | 0.00 | 0.00 | 99 | 987.7 |
| 20260906083818 | 61 | 340 | 0.0 | 0.0 | 0.00 | 0.00 | 0.00 | 99 | 987.7 |
| 20260906083317 | 61 | 340 | 0.0 | 0.0 | 0.00 | 0.00 | 0.00 | 99 | 987.4 |
| 20260906082817 | 61 | 340 | 0.0 | 0.0 | 0.00 | 0.00 | 0.00 | 99 | 987.5 |
| 20260906082316 | 61 | 340 | 0.0 | 0.0 | 0.00 | 0.00 | 0.00 | 99 | 987.3 |
| 20260906081815 | 61 | 340 | 0.0 | 0.0 | 0.00 | 0.00 | 0.00 | 99 | 987.3 |
| 20260906081314 | 61 | 340 | 0.0 | 0.0 | 0.00 | 0.00 | 0.00 | 99 | 987.4 |
| 20260906080813 | 61 | 340 | 0.0 | 0.0 | 0.00 | 0.00 | 0.00 | 99 | 987.7 |
| 20260906080312 | 61 | 340 | 0.0 | 0.0 | 0.00 | 0.00 | 0.00 | 99 | 987.5 |
| 20260906075811 | 62 | 340 | 0.0 | 0.0 | 0.00 | 0.00 | 0.00 | 99 | 987.4 |
| 20260906075310 | 62 | 340 | 0.0 | 0.0 | 0.00 | 0.00 | 0.00 | 99 | 987.6 |
| 20260906074809 | 62 | 340 | 0.0 | 0.0 | 0.00 | 0.00 | 0.00 | 99 | 987.7 |
| 20260906074309 | 62 | 340 | 0.0 | 0.0 | 0.00 | 0.00 | 0.00 | 99 | 987.6 |
| 20260906073808 | 62 | 338 | 0.0 | 0.0 | 0.00 | 0.00 | 0.00 | 99 | 987.6 |
| 20260906073307 | 62 | 340 | 0.0 | 0.0 | 0.00 | 0.00 | 0.00 | 99 | 987.6 |
| 20260906072806 | 62 | 340 | 0.0 | 0.0 | 0.00 | 0.00 | 0.00 | 99 | 987.7 |
| 20260906072306 | 62 | 340 | 0.0 | 0.0 | 0.00 | 0.00 | 0.00 | 99 | 987.7 |
| 20260906071804 | 62 | 340 | 0.0 | 0.0 | 0.00 | 0.00 | 0.00 | 99 | 987.8 |
| 20260906071304 | 62 | 340 | 0.0 | 0.0 | 0.00 | 0.00 | 0.00 | 99 | 987.7 |
| 20260906070803 | 62 | 340 | 0.0 | 0.0 | 0.00 | 0.00 | 0.00 | 99 | 987.6 |
| 20260906070302 | 62 | 340 | 0.0 | 0.0 | 0.00 | 0.00 | 0.00 | 99 | 987.7 |
| 20260906065802 | 62 | 340 | 0.0 | 0.0 | 0.00 | 0.00 | 0.00 | 99 | 987.6 |
| 20260906065301 | 62 | 340 | 0.0 | 0.0 | 0.00 | 0.00 | 0.00 | 99 | 987.8 |
| 20260906064800 | 62 | 340 | 0.0 | 0.0 | 0.00 | 0.00 | 0.00 | 99 | 987.7 |
| 20260906064259 | 62 | 340 | 0.0 | 0.0 | 0.00 | 0.00 | 0.00 | 99 | 987.8 |
| 20260906063759 | 63 | 340 | 0.0 | 0.0 | 0.00 | 0.00 | 0.00 | 99 | 987.8 |
| 20260906063258 | 63 | 340 | 0.0 | 0.0 | 0.00 | 0.00 | 0.00 | 99 | 987.8 |
| 20260906062757 | 63 | 340 | 0.0 | 0.0 | 0.00 | 0.00 | 0.00 | 99 | 988.1 |
| 20260906062257 | 63 | 340 | 0.0 | 0.0 | 0.00 | 0.00 | 0.00 | 99 | 988.0 |
| 20260906061756 | 64 | 340 | 0.0 | 0.0 | 0.00 | 0.00 | 0.00 | 99 | 987.9 |
| 20260906061255 | 64 | 340 | 0.0 | 0.0 | 0.00 | 0.00 | 0.00 | 99 | 987.9 |
| 20260906060754 | 63 | 340 | 0.0 | 0.0 | 0.00 | 0.00 | 0.00 | 99 | 987.9 |
| 20260906060253 | 64 | 340 | 0.0 | 0.0 | 0.00 | 0.00 | 0.00 | 99 | 987.6 |
| 20260906055752 | 63 | 342 | 0.0 | 0.0 | 0.00 | 0.00 | 0.00 | 99 | 987.7 |
| 20260906055252 | 63 | 342 | 0.0 | 0.0 | 0.00 | 0.00 | 0.00 | 99 | 987.7 |
| 20260906054751 | 64 | 349 | 0.0 | 0.0 | 0.00 | 0.00 | 0.00 | 99 | 987.6 |
| 20260906054250 | 64 | 349 | 0.0 | 0.0 | 0.00 | 0.00 | 0.00 | 99 | 987.7 |
| 20260906053749 | 64 | 342 | 0.0 | 0.0 | 0.00 | 0.00 | 0.00 | 99 | 987.5 |
| 20260906053248 | 64 | 349 | 0.0 | 0.0 | 0.00 | 0.00 | 0.00 | 99 | 987.7 |
| 20260906052747 | 64 | 349 | 0.0 | 0.0 | 0.00 | 0.00 | 0.00 | 99 | 987.8 |
| 20260906052247 | 64 | 349 | 0.0 | 0.0 | 0.00 | 0.00 | 0.00 | 99 | 987.7 |
| 20260906051746 | 64 | 349 | 0.0 | 0.0 | 0.00 | 0.00 | 0.00 | 99 | 987.6 |
| 20260906051245 | 64 | 349 | 0.0 | 0.0 | 0.00 | 0.00 | 0.00 | 99 | 987.7 |
| 20260906050744 | 65 | 349 | 0.0 | 0.0 | 0.00 | 0.00 | 0.00 | 99 | 987.8 |
| 20260906050243 | 65 | 349 | 0.0 | 0.0 | 0.00 | 0.00 | 0.00 | 99 | 987.6 |
| 20260906045742 | 65 | 349 | 0.0 | 0.0 | 0.00 | 0.00 | 0.00 | 99 | 987.7 |
| 20260906045241 | 65 | 349 | 0.0 | 0.0 | 0.00 | 0.00 | 0.00 | 99 | 987.8 |
| 20260906044741 | 65 | 349 | 0.0 | 0.0 | 0.00 | 0.00 | 0.00 | 99 | 987.9 |
| 20260906044240 | 65 | 349 | 0.0 | 0.0 | 0.00 | 0.00 | 0.00 | 98 | 987.8 |
| 20260906043739 | 65 | 349 | 0.0 | 0.0 | 0.00 | 0.00 | 0.00 | 99 | 987.9 |
| 20260906043238 | 65 | 349 | 0.0 | 0.0 | 0.00 | 0.00 | 0.00 | 98 | 987.8 |
| 20260906042738 | 65 | 342 | 0.0 | 0.0 | 0.00 | 0.00 | 0.00 | 98 | 987.6 |
| 20260906042237 | 66 | 344 | 0.0 | 0.0 | 0.00 | 0.00 | 0.00 | 98 | 987.7 |
| 20260906041736 | 66 | 344 | 0.0 | 0.0 | 0.00 | 0.00 | 0.00 | 98 | 987.6 |
| 20260906041235 | 66 | 344 | 0.0 | 0.0 | 0.00 | 0.00 | 0.00 | 98 | 987.5 |
| 20260906040735 | 66 | 338 | 0.0 | 0.0 | 0.00 | 0.00 | 0.00 | 98 | 987.5 |
| 20260906040234 | 66 | 332 | 0.0 | 0.0 | 0.00 | 0.00 | 0.00 | 98 | 987.4 |
| 20260906035733 | 66 | 1 | 0.0 | 0.0 | 0.00 | 0.00 | 0.00 | 98 | 987.1 |
| 20260906035232 | 66 | 1 | 0.0 | 0.0 | 0.00 | 0.00 | 0.00 | 98 | 987.1 |
| 20260906034732 | 66 | 1 | 0.0 | 0.0 | 0.00 | 0.00 | 0.00 | 98 | 987.1 |
| 20260906034231 | 66 | 5 | 0.0 | 0.0 | 0.00 | 0.00 | 0.00 | 97 | 987.2 |
| 20260906033730 | 67 | 5 | 0.0 | 0.0 | 0.00 | 0.00 | 0.00 | 97 | 987.1 |
| 20260906033229 | 67 | 5 | 0.0 | 0.0 | 0.00 | 0.00 | 0.00 | 97 | 986.8 |
| 20260906032729 | 67 | 5 | 0.0 | 0.0 | 0.00 | 0.00 | 0.00 | 97 | 987.0 |
| 20260906032228 | 68 | 5 | 0.0 | 0.0 | 0.00 | 0.00 | 0.00 | 97 | 986.9 |
| 20260906031727 | 68 | 5 | 0.0 | 0.0 | 0.00 | 0.00 | 0.00 | 97 | 987.1 |
| 20260906031226 | 68 | 6 | 0.0 | 0.0 | 0.00 | 0.00 | 0.00 | 97 | 986.9 |
| 20260906030725 | 68 | 5 | 0.0 | 0.0 | 0.00 | 0.00 | 0.00 | 96 | 986.8 |
| 20260906030224 | 68 | 5 | 0.0 | 0.0 | 0.00 | 0.00 | 0.00 | 96 | 986.9 |
| 20260906025723 | 69 | 22 | 0.0 | 0.0 | 0.00 | 0.00 | 0.00 | 96 | 986.8 |
| 20260906025223 | 69 | 41 | 0.0 | 0.0 | 0.00 | 0.00 | 0.00 | 96 | 986.6 |
| 20260906024722 | 69 | 354 | 0.0 | 0.0 | 0.00 | 0.00 | 0.00 | 97 | 986.6 |
| 20260906024221 | 69 | 355 | 0.0 | 0.0 | 0.00 | 0.00 | 0.00 | 97 | 986.5 |
| 20260906023720 | 69 | 9 | 0.0 | 0.0 | 0.00 | 0.00 | 0.00 | 97 | 986.4 |
| 20260906023219 | 69 | 14 | 0.0 | 0.0 | 0.00 | 0.00 | 0.00 | 97 | 986.3 |
| 20260906022719 | 69 | 0 | 0.0 | 0.0 | 0.00 | 0.00 | 0.00 | 97 | 986.2 |
| 20260906022218 | 70 | 0 | 0.0 | 0.0 | 0.00 | 0.00 | 0.00 | 97 | 986.3 |
| 20260906021717 | 69 | 359 | 0.0 | 0.0 | 0.00 | 0.00 | 0.00 | 98 | 986.2 |
| 20260906021216 | 69 | 12 | 0.0 | 0.0 | 0.00 | 0.00 | 0.00 | 97 | 986.1 |
| 20260906020716 | 69 | 355 | 0.0 | 0.0 | 0.00 | 0.00 | 0.00 | 97 | 985.9 |
| 20260906020215 | 70 | 355 | 0.0 | 0.0 | 0.00 | 0.00 | 0.00 | 97 | 986.0 |
| 20260906015714 | 69 | 15 | 0.0 | 0.0 | 0.00 | 0.00 | 0.00 | 97 | 985.7 |
| 20260906015213 | 70 | 15 | 0.0 | 0.0 | 0.00 | 0.00 | 0.00 | 97 | 985.8 |
| 20260906014712 | 70 | 15 | 0.0 | 0.0 | 0.00 | 0.00 | 0.00 | 97 | 985.9 |
| 20260906014211 | 70 | 358 | 0.0 | 0.0 | 0.00 | 0.00 | 0.00 | 97 | 985.6 |
| 20260906013710 | 70 | 346 | 0.0 | 0.0 | 0.00 | 0.00 | 0.00 | 97 | 985.5 |
| 20260906013209 | 70 | 356 | 0.0 | 0.0 | 0.00 | 0.00 | 0.00 | 97 | 985.2 |
| 20260906012708 | 70 | 356 | 0.0 | 0.0 | 0.00 | 0.00 | 0.00 | 96 | 985.4 |
| 20260906012208 | 71 | 356 | 0.0 | 0.0 | 0.00 | 0.00 | 0.00 | 96 | 985.2 |
| 20260906011707 | 71 | 356 | 0.0 | 0.0 | 0.00 | 0.00 | 0.00 | 96 | 985.2 |
| 20260906011206 | 71 | 356 | 0.0 | 0.0 | 0.00 | 0.00 | 0.00 | 96 | 985.1 |
| 20260906010705 | 71 | 356 | 0.0 | 0.0 | 0.00 | 0.00 | 0.00 | 96 | 985.1 |
| 20260906010204 | 72 | 356 | 0.0 | 0.0 | 0.00 | 0.00 | 0.00 | 96 | 985.1 |
| 20260906005703 | 72 | 356 | 0.0 | 0.0 | 0.00 | 0.00 | 0.00 | 95 | 985.1 |
| 20260906005203 | 72 | 356 | 0.0 | 0.0 | 0.00 | 0.00 | 0.00 | 95 | 985.1 |
| 20260906004702 | 72 | 356 | 0.0 | 0.0 | 0.00 | 0.00 | 0.00 | 94 | 984.9 |
| 20260906004201 | 72 | 358 | 0.0 | 0.0 | 0.00 | 0.00 | 0.00 | 94 | 984.8 |
| 20260906003700 | 72 | 349 | 0.0 | 0.0 | 0.00 | 0.00 | 0.00 | 94 | 984.9 |
| 20260906003159 | 73 | 344 | 0.0 | 0.0 | 0.00 | 0.00 | 0.00 | 94 | 984.8 |
| 20260906002659 | 73 | 344 | 0.0 | 0.0 | 0.00 | 0.00 | 0.00 | 93 | 984.9 |
| 20260906002158 | 73 | 344 | 0.0 | 0.0 | 0.00 | 0.00 | 0.00 | 92 | 984.8 |
| 20260906001657 | 74 | 344 | 0.0 | 0.0 | 0.00 | 0.00 | 0.00 | 91 | 984.9 |
| 20260906001156 | 74 | 29 | 0.0 | 0.0 | 0.00 | 0.00 | 0.00 | 90 | 984.8 |
| 20260906000656 | 74 | 16 | 0.0 | 0.0 | 0.00 | 0.00 | 0.00 | 90 | 984.9 |
| 20260906000155 | 74 | 7 | 0.0 | 0.0 | 0.00 | 0.00 | 0.00 | 90 | 984.7 |
| 20260905235654 | 74 | 46 | 0.0 | 0.0 | 0.00 | 0.00 | 0.00 | 90 | 984.8 |
| 20260905235153 | 74 | 33 | 0.0 | 0.0 | 0.00 | 0.00 | 0.00 | 90 | 985.0 |
| 20260905234652 | 74 | 34 | 0.0 | 0.0 | 0.00 | 0.00 | 0.00 | 90 | 985.0 |
| 20260905234152 | 74 | 4 | 0.0 | 0.0 | 0.00 | 0.00 | 0.00 | 89 | 985.1 |
| 20260905233651 | 75 | 4 | 0.0 | 0.0 | 0.00 | 0.00 | 0.00 | 90 | 985.3 |
| 20260905233150 | 75 | 6 | 0.0 | 0.0 | 0.00 | 0.00 | 0.00 | 89 | 985.2 |
| 20260905232649 | 75 | 6 | 0.0 | 0.0 | 0.00 | 0.00 | 0.00 | 89 | 985.2 |
| 20260905232149 | 76 | 6 | 0.0 | 0.0 | 0.00 | 0.00 | 0.00 | 88 | 985.2 |
| 20260905231648 | 76 | 8 | 0.0 | 0.0 | 0.00 | 0.00 | 0.00 | 89 | 985.2 |
| 20260905231147 | 76 | 359 | 0.0 | 0.0 | 0.00 | 0.00 | 0.00 | 88 | 985.3 |
| 20260905230647 | 76 | 344 | 0.0 | 0.0 | 0.00 | 0.00 | 0.00 | 88 | 985.4 |
| 20260905230146 | 76 | 344 | 0.0 | 0.0 | 0.00 | 0.00 | 0.00 | 87 | 985.4 |
| 20260905225645 | 77 | 344 | 0.0 | 0.0 | 0.00 | 0.00 | 0.00 | 87 | 985.5 |
| 20260905225144 | 78 | 347 | 0.0 | 0.0 | 0.00 | 0.00 | 0.00 | 84 | 985.5 |
| 20260905224643 | 78 | 348 | 0.0 | 0.0 | 0.00 | 0.00 | 0.00 | 83 | 985.2 |
| 20260905224142 | 78 | 299 | 0.0 | 0.0 | 0.00 | 0.00 | 0.00 | 79 | 985.1 |
| 20260905223641 | 79 | 44 | 0.0 | 0.0 | 0.00 | 0.00 | 0.00 | 78 | 985.0 |
| 20260905223140 | 79 | 60 | 0.0 | 0.0 | 0.00 | 0.00 | 0.00 | 78 | 985.3 |
| 20260905222640 | 80 | 25 | 0.0 | 0.0 | 0.00 | 0.00 | 0.00 | 77 | 985.2 |
| 20260905222139 | 80 | 348 | 0.0 | 0.0 | 0.00 | 0.00 | 0.00 | 79 | 985.2 |
| 20260905221638 | 80 | 348 | 0.0 | 0.0 | 0.00 | 0.00 | 0.00 | 78 | 985.2 |
| 20260905221137 | 80 | 302 | 0.0 | 0.0 | 0.00 | 0.00 | 0.00 | 76 | 985.3 |
| 20260905220637 | 80 | 160 | 0.0 | 0.0 | 0.00 | 0.00 | 0.00 | 76 | 985.1 |
| 20260905220136 | 81 | 20 | 0.0 | 0.0 | 0.00 | 0.00 | 0.00 | 74 | 985.3 |
| 20260905215635 | 82 | 265 | 0.0 | 0.0 | 0.00 | 0.00 | 0.00 | 71 | 985.3 |
| 20260905215134 | 82 | 338 | 0.0 | 0.0 | 0.00 | 0.00 | 0.00 | 73 | 985.4 |
| 20260905214633 | 82 | 352 | 0.0 | 0.0 | 0.00 | 0.00 | 0.00 | 73 | 985.4 |
| 20260905214132 | 80 | 350 | 0.0 | 0.0 | 0.00 | 0.00 | 0.00 | 74 | 985.4 |
| 20260905213632 | 78 | 336 | 0.0 | 0.0 | 0.00 | 0.00 | 0.00 | 78 | 985.6 |
| 20260905213131 | 79 | 336 | 0.0 | 0.0 | 0.00 | 0.00 | 0.00 | 83 | 985.8 |
| 20260905212630 | 79 | 337 | 0.0 | 0.0 | 0.00 | 0.00 | 0.00 | 81 | 985.7 |
| 20260905212129 | 79 | 334 | 0.0 | 0.0 | 0.00 | 0.00 | 0.00 | 79 | 985.6 |
| 20260905211628 | 79 | 322 | 0.0 | 0.0 | 0.00 | 0.00 | 0.00 | 77 | 985.5 |
| 20260905211127 | 78 | 213 | 0.0 | 0.0 | 0.00 | 0.00 | 0.00 | 78 | 985.6 |
| 20260905210627 | 78 | 325 | 0.0 | 0.0 | 0.00 | 0.00 | 0.00 | 80 | 985.5 |
| 20260905210126 | 77 | 338 | 0.0 | 0.0 | 0.00 | 0.00 | 0.00 | 82 | 985.7 |
| 20260905205626 | 78 | 6 | 0.0 | 0.0 | 0.00 | 0.00 | 0.00 | 82 | 985.8 |
| 20260905205125 | 78 | 157 | 0.0 | 0.0 | 0.00 | 0.00 | 0.00 | 81 | 985.6 |
| 20260905204624 | 78 | 119 | 0.0 | 0.0 | 0.00 | 0.00 | 0.00 | 79 | 985.3 |
| 20260905204123 | 79 | 52 | 0.0 | 1.0 | 0.00 | 0.00 | 0.00 | 79 | 985.4 |
| 20260905203622 | 80 | 58 | 0.0 | 0.0 | 0.00 | 0.00 | 0.00 | 78 | 985.3 |
| 20260905203121 | 80 | 177 | 0.0 | 1.0 | 0.00 | 0.00 | 0.00 | 76 | 985.4 |
| 20260905202621 | 81 | 81 | 0.0 | 0.0 | 0.00 | 0.00 | 0.00 | 74 | 985.4 |
| 20260905202120 | 79 | 320 | 0.0 | 0.0 | 0.00 | 0.00 | 0.00 | 81 | 985.3 |
| 20260905201619 | 78 | 339 | 0.0 | 0.0 | 0.00 | 0.00 | 0.00 | 81 | 985.6 |
| 20260905201119 | 77 | 86 | 0.0 | 0.0 | 0.00 | 0.00 | 0.00 | 83 | 985.9 |
| 20260905200618 | 77 | 59 | 0.0 | 0.0 | 0.00 | 0.00 | 0.00 | 83 | 985.9 |
| 20260905200117 | 77 | 318 | 0.0 | 0.0 | 0.00 | 0.00 | 0.00 | 84 | 985.9 |
| 20260905195616 | 77 | 336 | 0.0 | 0.0 | 0.00 | 0.00 | 0.00 | 82 | 986.0 |
| 20260905195115 | 77 | 7 | 0.0 | 0.0 | 0.00 | 0.00 | 0.00 | 83 | 985.9 |
| 20260905194614 | 77 | 323 | 0.0 | 0.0 | 0.00 | 0.00 | 0.00 | 82 | 986.0 |
| 20260905194114 | 77 | 47 | 0.0 | 0.0 | 0.00 | 0.00 | 0.00 | 81 | 985.9 |
| 20260905193613 | 77 | 308 | 0.0 | 0.0 | 0.00 | 0.00 | 0.00 | 79 | 986.0 |
| 20260905193112 | 77 | 93 | 0.0 | 0.0 | 0.00 | 0.00 | 0.00 | 82 | 985.6 |
| 20260905192611 | 77 | 301 | 0.0 | 0.0 | 0.00 | 0.00 | 0.00 | 80 | 985.9 |
| 20260905192110 | 77 | 172 | 0.0 | 0.0 | 0.00 | 0.00 | 0.00 | 82 | 986.0 |
| 20260905191609 | 78 | 103 | 0.0 | 2.0 | 0.00 | 0.00 | 0.00 | 80 | 986.0 |
| 20260905191109 | 78 | 169 | 0.0 | 0.0 | 0.00 | 0.00 | 0.00 | 79 | 985.9 |
| 20260905190608 | 78 | 52 | 0.0 | 0.0 | 0.00 | 0.00 | 0.00 | 81 | 986.0 |
| 20260905190107 | 78 | 80 | 0.0 | 0.0 | 0.00 | 0.00 | 0.00 | 80 | 985.8 |
| 20260905185606 | 79 | 109 | 0.0 | 0.0 | 0.00 | 0.00 | 0.00 | 79 | 985.7 |
| 20260905185105 | 80 | 135 | 0.0 | 1.0 | 0.00 | 0.00 | 0.00 | 79 | 985.8 |
| 20260905184604 | 79 | 110 | 0.0 | 0.0 | 0.00 | 0.00 | 0.00 | 81 | 985.9 |
| 20260905184103 | 79 | 175 | 2.0 | 3.0 | 0.00 | 0.00 | 0.00 | 80 | 985.9 |
| 20260905183603 | 79 | 131 | 0.0 | 0.0 | 0.00 | 0.00 | 0.00 | 80 | 985.8 |
| 20260905183102 | 79 | 194 | 0.0 | 1.0 | 0.00 | 0.00 | 0.00 | 79 | 985.8 |
| 20260905182601 | 79 | 51 | 0.0 | 0.0 | 0.00 | 0.00 | 0.00 | 78 | 985.8 |
| 20260905182100 | 78 | 63 | 0.0 | 0.0 | 0.00 | 0.00 | 0.00 | 81 | 986.0 |
| 20260905181559 | 78 | 75 | 2.0 | 4.0 | 0.00 | 0.00 | 0.00 | 80 | 985.9 |
| 20260905181059 | 78 | 80 | 1.0 | 3.0 | 0.00 | 0.00 | 0.00 | 81 | 986.2 |
| 20260905180558 | 78 | 95 | 0.0 | 0.0 | 0.00 | 0.00 | 0.00 | 83 | 986.2 |
| 20260905180057 | 79 | 183 | 0.0 | 1.0 | 0.00 | 0.00 | 0.00 | 80 | 986.2 |
| 20260905175556 | 78 | 130 | 0.0 | 0.0 | 0.00 | 0.00 | 0.00 | 82 | 986.4 |
| 20260905175055 | 78 | 174 | 0.0 | 0.0 | 0.00 | 0.00 | 0.00 | 81 | 986.0 |
| 20260905174554 | 78 | 89 | 2.0 | 3.0 | 0.00 | 0.00 | 0.00 | 81 | 986.1 |
| 20260905174054 | 78 | 81 | 0.0 | 0.0 | 0.00 | 0.00 | 0.00 | 82 | 986.1 |
| 20260905173553 | 79 | 86 | 0.0 | 0.0 | 0.00 | 0.00 | 0.00 | 81 | 986.2 |
| 20260905173052 | 78 | 87 | 0.0 | 0.0 | 0.00 | 0.00 | 0.00 | 82 | 986.3 |
| 20260905172551 | 78 | 71 | 0.0 | 0.0 | 0.00 | 0.00 | 0.00 | 82 | 986.3 |
| 20260905172050 | 78 | 345 | 0.0 | 0.0 | 0.00 | 0.00 | 0.00 | 82 | 986.2 |
| 20260905171549 | 78 | 271 | 0.0 | 0.0 | 0.00 | 0.00 | 0.00 | 83 | 986.3 |
| 20260905171049 | 78 | 131 | 0.0 | 0.0 | 0.00 | 0.00 | 0.00 | 82 | 986.3 |
| 20260905170548 | 78 | 352 | 0.0 | 0.0 | 0.00 | 0.00 | 0.00 | 83 | 986.2 |
| 20260905170047 | 78 | 35 | 0.0 | 0.0 | 0.00 | 0.00 | 0.00 | 82 | 986.0 |
| 20260905165546 | 78 | 39 | 0.0 | 0.0 | 0.00 | 0.00 | 0.00 | 83 | 985.9 |
| 20260905165046 | 78 | 95 | 0.0 | 0.0 | 0.00 | 0.00 | 0.00 | 83 | 986.0 |
| 20260905164545 | 79 | 12 | 0.0 | 0.0 | 0.00 | 0.00 | 0.00 | 83 | 985.9 |
| 20260905164044 | 79 | 179 | 0.0 | 0.0 | 0.00 | 0.00 | 0.00 | 82 | 986.0 |
| 20260905163543 | 79 | 15 | 0.0 | 0.0 | 0.00 | 0.00 | 0.00 | 84 | 986.2 |
| 20260905163042 | 79 | 46 | 0.0 | 0.0 | 0.00 | 0.00 | 0.00 | 82 | 986.0 |
| 20260905162541 | 78 | 48 | 0.0 | 0.0 | 0.00 | 0.00 | 0.00 | 85 | 986.0 |
| 20260905162041 | 78 | 55 | 0.0 | 0.0 | 0.00 | 0.00 | 0.00 | 85 | 986.1 |
| 20260905161540 | 77 | 120 | 0.0 | 0.0 | 0.00 | 0.00 | 0.00 | 87 | 986.0 |
| 20260905161039 | 76 | 86 | 0.0 | 0.0 | 0.00 | 0.00 | 0.00 | 87 | 986.0 |
| 20260905160538 | 77 | 67 | 0.0 | 0.0 | 0.00 | 0.00 | 0.00 | 87 | 986.2 |
| 20260905160037 | 76 | 118 | 0.0 | 0.0 | 0.00 | 0.00 | 0.00 | 88 | 986.0 |
| 20260905155537 | 76 | 183 | 0.0 | 0.0 | 0.00 | 0.00 | 0.00 | 90 | 986.1 |
| 20260905155036 | 76 | 40 | 0.0 | 0.0 | 0.00 | 0.00 | 0.00 | 90 | 985.9 |
| 20260905154535 | 75 | 76 | 0.0 | 0.0 | 0.00 | 0.00 | 0.00 | 90 | 986.2 |
| 20260905154034 | 75 | 102 | 0.0 | 0.0 | 0.00 | 0.00 | 0.00 | 92 | 985.9 |
| 20260905153533 | 75 | 166 | 0.0 | 0.0 | 0.00 | 0.00 | 0.00 | 93 | 986.0 |
| 20260905153032 | 75 | 63 | 0.0 | 0.0 | 0.00 | 0.00 | 0.00 | 97 | 985.9 |
| 20260905152531 | 74 | 39 | 0.0 | 0.0 | 0.00 | 0.00 | 0.00 | 99 | 986.0 |
| 20260905152031 | 74 | 153 | 0.0 | 0.0 | 0.00 | 0.00 | 0.00 | 99 | 985.8 |
| 20260905151531 | 74 | 168 | 0.0 | 0.0 | 0.00 | 0.00 | 0.00 | 99 | 985.7 |
| 20260905151030 | 73 | 99 | 0.0 | 0.0 | 0.00 | 0.00 | 0.00 | 99 | 985.7 |
| 20260905150529 | 73 | 66 | 0.0 | 0.0 | 0.00 | 0.00 | 0.00 | 99 | 986.0 |
| 20260905150028 | 73 | 63 | 0.0 | 0.0 | 0.00 | 0.00 | 0.00 | 99 | 985.5 |
| 20260905145528 | 72 | 61 | 0.0 | 0.0 | 0.00 | 0.00 | 0.00 | 99 | 985.6 |
| 20260905145027 | 72 | 73 | 0.0 | 0.0 | 0.00 | 0.00 | 0.00 | 99 | 985.7 |
| 20260905144526 | 72 | 80 | 0.0 | 0.0 | 0.00 | 0.00 | 0.00 | 99 | 985.6 |
| 20260905144026 | 72 | 75 | 0.0 | 0.0 | 0.00 | 0.00 | 0.00 | 99 | 985.4 |
| 20260905143525 | 72 | 164 | 0.0 | 0.0 | 0.00 | 0.00 | 0.00 | 99 | 985.4 |
| 20260905143024 | 72 | 38 | 0.0 | 0.0 | 0.00 | 0.00 | 0.00 | 99 | 985.3 |
| 20260905142523 | 72 | 42 | 0.0 | 0.0 | 0.00 | 0.00 | 0.00 | 99 | 985.3 |
| 20260905142022 | 72 | 179 | 0.0 | 0.0 | 0.00 | 0.00 | 0.00 | 99 | 985.2 |
| 20260905141521 | 72 | 107 | 0.0 | 0.0 | 0.00 | 0.00 | 0.00 | 99 | 985.3 |
| 20260905141020 | 72 | 42 | 0.0 | 0.0 | 0.00 | 0.00 | 0.00 | 99 | 985.1 |
| 20260905140519 | 72 | 45 | 0.0 | 0.0 | 0.00 | 0.00 | 0.00 | 99 | 985.3 |
| 20260905140018 | 72 | 48 | 0.0 | 0.0 | 0.00 | 0.00 | 0.00 | 99 | 985.1 |
| 20260905135517 | 72 | 41 | 0.0 | 0.0 | 0.00 | 0.00 | 0.00 | 99 | 985.0 |
| 20260905135017 | 72 | 148 | 0.0 | 0.0 | 0.00 | 0.00 | 0.00 | 99 | 984.7 |
| 20260905134516 | 72 | 166 | 0.0 | 0.0 | 0.00 | 0.00 | 0.00 | 99 | 984.8 |
| 20260905134015 | 72 | 51 | 0.0 | 0.0 | 0.00 | 0.00 | 0.00 | 99 | 984.8 |
| 20260905133514 | 72 | 28 | 0.0 | 0.0 | 0.00 | 0.00 | 0.00 | 99 | 984.6 |
| 20260905133013 | 72 | 23 | 0.0 | 0.0 | 0.00 | 0.00 | 0.00 | 99 | 984.4 |
| 20260905132513 | 70 | 335 | 0.0 | 0.0 | 0.00 | 0.00 | 0.00 | 99 | 984.4 |
| 20260905132012 | 70 | 9 | 0.0 | 0.0 | 0.00 | 0.00 | 0.00 | 99 | 984.4 |
| 20260905131511 | 70 | 356 | 0.0 | 0.0 | 0.00 | 0.00 | 0.00 | 99 | 984.5 |
| 20260905131010 | 70 | 345 | 0.0 | 0.0 | 0.00 | 0.00 | 0.00 | 99 | 984.4 |
| 20260905130509 | 69 | 353 | 0.0 | 0.0 | 0.00 | 0.00 | 0.00 | 99 | 984.4 |
| 20260905130009 | 69 | 359 | 0.0 | 0.0 | 0.00 | 0.00 | 0.00 | 99 | 984.4 |
| 20260905125508 | 69 | 359 | 0.0 | 0.0 | 0.00 | 0.00 | 0.00 | 99 | 984.4 |
| 20260905125007 | 69 | 0 | 0.0 | 0.0 | 0.00 | 0.00 | 0.00 | 99 | 984.4 |
| 20260905124507 | 68 | 3 | 0.0 | 0.0 | 0.00 | 0.00 | 0.00 | 99 | 984.3 |
| 20260905124006 | 68 | 5 | 0.0 | 0.0 | 0.00 | 0.00 | 0.00 | 99 | 984.4 |
| 20260905123505 | 68 | 5 | 0.0 | 0.0 | 0.00 | 0.00 | 0.00 | 99 | 984.4 |
| 20260905123004 | 68 | 6 | 0.0 | 0.0 | 0.00 | 0.00 | 0.00 | 99 | 984.3 |
| 20260905122503 | 68 | 348 | 0.0 | 0.0 | 0.00 | 0.00 | 0.00 | 99 | 984.1 |
| 20260905122002 | 68 | 348 | 0.0 | 0.0 | 0.00 | 0.00 | 0.00 | 99 | 984.1 |
| 20260905121501 | 67 | 348 | 0.0 | 0.0 | 0.00 | 0.00 | 0.00 | 99 | 984.0 |
| 20260905121001 | 67 | 348 | 0.0 | 0.0 | 0.00 | 0.00 | 0.00 | 99 | 984.0 |
| 20260905120500 | 67 | 348 | 0.0 | 0.0 | 0.00 | 0.00 | 0.00 | 99 | 984.0 |
| 20260905115959 | 67 | 349 | 0.0 | 0.0 | 0.00 | 0.00 | 0.00 | 99 | 983.9 |
| 20260905115459 | 67 | 349 | 0.0 | 0.0 | 0.00 | 0.00 | 0.00 | 99 | 983.8 |
| 20260905114958 | 67 | 348 | 0.0 | 0.0 | 0.00 | 0.00 | 0.00 | 99 | 984.0 |
| 20260905114457 | 66 | 348 | 0.0 | 0.0 | 0.00 | 0.00 | 0.00 | 99 | 984.1 |
| 20260905113957 | 66 | 348 | 0.0 | 0.0 | 0.00 | 0.00 | 0.00 | 99 | 984.0 |
| 20260905113456 | 66 | 348 | 0.0 | 0.0 | 0.00 | 0.00 | 0.00 | 99 | 983.9 |
| 20260905112955 | 66 | 348 | 0.0 | 0.0 | 0.00 | 0.00 | 0.00 | 99 | 983.9 |
| 20260905112454 | 66 | 348 | 0.0 | 0.0 | 0.00 | 0.00 | 0.00 | 99 | 983.4 |
| 20260905111953 | 66 | 348 | 0.0 | 0.0 | 0.00 | 0.00 | 0.00 | 99 | 983.2 |
| 20260905111452 | 66 | 348 | 0.0 | 0.0 | 0.00 | 0.00 | 0.00 | 99 | 983.1 |
| 20260905110951 | 66 | 348 | 0.0 | 0.0 | 0.00 | 0.00 | 0.00 | 99 | 983.3 |
| 20260905110450 | 66 | 349 | 0.0 | 0.0 | 0.00 | 0.00 | 0.00 | 99 | 983.1 |
| 20260905105950 | 65 | 349 | 0.0 | 0.0 | 0.00 | 0.00 | 0.00 | 99 | 983.4 |
| 20260905105449 | 65 | 349 | 0.0 | 0.0 | 0.00 | 0.00 | 0.00 | 99 | 983.1 |
| 20260905104949 | 65 | 348 | 0.0 | 0.0 | 0.00 | 0.00 | 0.00 | 99 | 983.1 |
| 20260905104448 | 65 | 349 | 0.0 | 0.0 | 0.00 | 0.00 | 0.00 | 99 | 982.8 |
| 20260905103947 | 65 | 348 | 0.0 | 0.0 | 0.00 | 0.00 | 0.00 | 99 | 982.6 |
| 20260905103447 | 65 | 349 | 0.0 | 0.0 | 0.00 | 0.00 | 0.00 | 99 | 982.8 |
| 20260905102946 | 65 | 349 | 0.0 | 0.0 | 0.00 | 0.00 | 0.00 | 99 | 982.8 |
| 20260905102445 | 65 | 349 | 0.0 | 0.0 | 0.00 | 0.00 | 0.00 | 99 | 982.9 |
| 20260905101944 | 65 | 349 | 0.0 | 0.0 | 0.00 | 0.00 | 0.00 | 99 | 982.8 |
| 20260905101443 | 65 | 349 | 0.0 | 0.0 | 0.00 | 0.00 | 0.00 | 99 | 982.9 |
| 20260905100942 | 65 | 349 | 0.0 | 0.0 | 0.00 | 0.00 | 0.00 | 99 | 982.8 |
| 20260905100441 | 65 | 349 | 0.0 | 0.0 | 0.00 | 0.00 | 0.00 | 99 | 982.8 |
| 20260905095940 | 65 | 353 | 0.0 | 0.0 | 0.00 | 0.00 | 0.00 | 99 | 982.8 |